[[{"header":{"parameterUnit":"m.s-1","parameterCategory":1,"la1":30.2991,"la2":30.254,"lo1":-89.0895,"lo2":-89.0444,"dy":0.0017,"dx":0.0017,"nx":28,"ny":28,"refTime":"2024-07-15T03:00:00:Z","depth":0,"parameterNumber":2,"parameterNumberName":"U-component_of_WINDS"},"data":[0,0,0,0,0,0,0,0,0,0,0,0,0,0,0,0,0,0,0,0,0,0,0,0,0,0,0,0,0,0,0,0,0,0,0,0,0,0,0,0,0,0,0,0,0,0,0,0,0,0,0,0,0,0,0,0,0,0,1.2744,1.2745,0,1.2878,1.2879,1.2881,1.2923,1.2923,1.2922,1.2921,1.3058,1.3062,1.3066,0,0,0,0,0,0,0,0,0,0,0,0,0,1.2523,1.2527,1.2743,1.2745,1.2747,1.2877,1.2879,1.2881,1.2923,1.2923,1.2922,1.2921,1.3057,1.3062,1.3067,0,0,0,0,0,0,0,0,0,0,0,0,0,1.2634,1.2528,1.2743,1.2784,1.2789,1.2877,1.2879,1.2882,1.2924,1.2923,1.2922,1.2921,1.3055,1.3061,1.3067,1.3125,0,0,1.3087,1.3089,0,0,0,0,0,0,0,0,1.2628,1.2642,1.2776,1.2781,1.2787,1.2883,1.2852,1.2963,1.2924,1.2872,1.2921,1.292,1.3,1.3011,1.3038,1.3131,1.3137,1.3087,1.3091,1.3094,1.3096,0,0,0,0,0,0,0,1.262,1.2637,1.2797,1.2778,1.2785,1.2795,1.281,1.2873,1.294,1.2877,1.288,1.2895,1.3003,1.3032,1.3042,1.3139,1.3087,1.3093,1.3097,1.3099,1.3286,1.3287,0,0,0,0,0,0,1.2606,1.263,1.2792,1.2801,1.2703,1.28,1.2816,1.2853,1.2939,1.2952,1.2896,1.2897,1.3022,1.3034,1.3047,1.312,1.3094,1.31,1.3103,1.3285,1.3286,1.3287,0,0,0,0,0,0,1.2601,1.262,1.2787,1.2716,1.2738,1.2804,1.2845,1.2856,1.2885,1.2954,1.2966,1.2913,1.3022,1.3038,1.3105,1.3125,1.3103,1.3108,1.3283,1.3285,1.3287,1.3265,0,0,0,0,0,0,1.2594,1.2618,1.264,1.2716,1.2742,1.2843,1.2847,1.2859,1.2896,1.2898,1.2974,1.2985,1.3022,1.3096,1.3111,1.3133,1.3113,1.3282,1.3284,1.3286,1.3265,1.3266,1.3268,0,0,0,0,0,1.2586,1.2629,1.2641,1.2661,1.2772,1.2844,1.2859,1.2901,1.2897,1.2921,1.2965,1.2983,1.312,1.3102,1.312,1.3144,1.3281,1.3283,1.3286,1.3264,1.3266,1.3267,0,0,0,0,0,0,1.2553,1.264,1.2654,1.2723,1.2776,1.2851,1.2882,1.2901,1.2956,1.2956,1.3006,1.3022,1.3086,1.3122,1.31,1.3204,1.3201,1.3208,1.3178,1.3181,1.3182,1.3172,1.3119,0,0,0,0,0,1.2554,1.2606,1.2678,1.2732,1.2758,1.2815,1.2848,1.2876,1.2933,1.2955,1.3005,1.3059,1.3114,1.315,1.3204,1.327,1.3287,1.3296,1.3297,1.3298,1.3303,1.334,1.3344,1.3296,1.3296,1.3296,0,0,1.2556,1.2609,1.2639,1.2727,1.2771,1.2823,1.2834,1.2888,1.2928,1.2964,1.303,1.3068,1.3132,1.3198,1.323,1.323,1.332,1.3301,1.3302,1.3306,1.3343,1.3347,1.3351,1.3298,1.3298,1.3297,0,0,1.2586,1.2632,1.2681,1.2726,1.2793,1.2831,1.2842,1.2915,1.2941,1.3009,1.3037,1.3084,1.3179,1.3223,1.3258,1.3304,1.3323,1.3321,1.3328,1.3364,1.3368,1.3371,1.3387,1.3392,1.3326,1.3326,1.3326,0,1.2579,1.2659,1.2704,1.2758,1.2795,1.2831,1.2881,1.2921,1.3003,1.3028,1.3027,1.3146,1.3192,1.3269,1.328,1.3307,1.3322,1.3312,1.3363,1.3368,1.3372,1.3387,1.3393,1.3325,1.3325,1.3325,1.3325,0,1.2648,1.2703,1.2735,1.2813,1.2854,1.2906,1.2958,1.2994,1.3018,1.3056,1.3124,1.318,1.3247,1.3267,1.3291,1.3348,1.3346,1.3354,1.3352,1.3375,1.339,1.3397,1.3324,1.3324,1.3324,1.3324,0,0,1.266,1.2762,1.2773,1.2809,1.2886,1.2929,1.2982,1.3047,1.3077,1.3132,1.3178,1.3257,1.3265,1.3304,1.3334,1.3365,1.3398,1.3369,1.3371,1.3372,1.3462,1.3455,1.3462,1.341,1.3412,1.3413,1.3457,0,1.2699,1.2796,1.2838,1.2915,1.2966,1.3001,1.3047,1.3099,1.3135,1.3184,1.3225,1.328,1.3286,1.331,1.3343,1.3387,1.3416,1.3384,1.3452,1.3454,1.3435,1.347,1.3463,1.3502,1.3463,1.3464,1.3465,0,1.2758,1.2813,1.2896,1.2966,1.2989,1.303,1.3093,1.3139,1.3199,1.3223,1.3267,1.3295,1.3352,1.3346,1.3425,1.3402,1.3432,1.3458,1.3461,1.3468,1.346,1.3478,1.3515,1.3521,1.3475,1.3475,1.3474,0,1.2757,1.2853,1.2914,1.2944,1.3028,1.3055,1.3092,1.315,1.3187,1.3242,1.3266,1.3327,1.336,1.3407,1.345,1.3442,1.3524,1.3523,1.3546,1.3545,1.3561,1.3559,1.3603,1.3582,1.3582,1.3582,1.3581,0,1.2796,1.2845,1.2915,1.2953,1.3008,1.3056,1.311,1.3148,1.32,1.3246,1.328,1.3321,1.3377,1.3426,1.3461,1.352,1.3535,1.3556,1.3564,1.3552,1.355,1.3573,1.3571,1.3583,1.3583,1.3582,1.3582,0,1.2805,1.2854,1.2923,1.2997,1.3017,1.3054,1.3118,1.3155,1.3194,1.3251,1.3267,1.3328,1.3387,1.3435,1.3513,1.3536,1.3598,1.3608,1.3578,1.3582,1.3602,1.3599,1.3662,1.3672,1.3644,1.3644,1.3645,0,1.2826,1.2864,1.2942,1.2976,1.3011,1.3064,1.3102,1.315,1.3188,1.3259,1.3288,1.335,1.3402,1.3495,1.3545,1.3605,1.3616,1.3634,1.3625,1.3612,1.3616,1.3612,1.3616,1.3634,1.3634,1.3634,1.3635,0,1.2858,1.288,1.2933,1.2995,1.3039,1.309,1.3142,1.3167,1.3224,1.3265,1.3326,1.3367,1.3446,1.3507,1.3572,1.3609,1.3631,1.3637,1.3645,1.3633,1.3614,1.3624,1.3579,1.3635,1.3635,1.3635,1.3635,1.3635,1.2873,1.2909,1.2969,1.3027,1.3071,1.3119,1.3158,1.3201,1.3253,1.3322,1.3348,1.341,1.3468,1.3558,1.3595,1.3645,1.3647,1.3659,1.3662,1.3664,1.3662,1.3607,1.3657,1.3657,1.3657,1.3657,1.3657,0,1.2906,1.2947,1.3,1.3071,1.3117,1.3135,1.3193,1.3229,1.3284,1.3337,1.3387,1.3458,1.3517,1.3572,1.3634,1.3663,1.3675,1.3677,1.3675,1.3683,1.3657,1.3643,1.3667,1.3667,1.3667,1.3667,1.3667,1.3667,1.2929,1.299,1.3019,1.3102,1.3143,1.3205,1.3236,1.328,1.3323,1.34,1.3449,1.3485,1.3539,1.3605,1.366,1.3674,1.3695,1.3695,1.3712,1.3687,1.3685,1.3684,1.3671,1.3699,1.3699,1.3734,1.3735,1.3735]},{"header":{"parameterUnit":"m.s-1","parameterCategory":1,"la1":30.2991,"la2":30.254,"lo1":-89.0895,"lo2":-89.0444,"dy":0.0017,"dx":0.0017,"nx":28,"ny":28,"refTime":"2024-07-15T03:00:00:Z","depth":0,"parameterNumber":3,"parameterNumberName":"V-component_of_WINDS"},"data":[0,0,0,0,0,0,0,0,0,0,0,0,0,0,0,0,0,0,0,0,0,0,0,0,0,0,0,0,0,0,0,0,0,0,0,0,0,0,0,0,0,0,0,0,0,0,0,0,0,0,0,0,0,0,0,0,0,0,4.9731,4.973,0,4.9693,4.9692,4.9692,4.9617,4.9616,4.9614,4.9613,4.9576,4.9576,4.9576,0,0,0,0,0,0,0,0,0,0,0,0,0,4.9741,4.9741,4.9731,4.973,4.973,4.9693,4.9692,4.9692,4.9618,4.9616,4.9614,4.9612,4.9575,4.9576,4.9576,0,0,0,0,0,0,0,0,0,0,0,0,0,4.9723,4.9741,4.9731,4.9688,4.9684,4.9693,4.9692,4.9692,4.9618,4.9616,4.9613,4.9611,4.9575,4.9576,4.9576,4.9624,0,0,4.9578,4.9578,0,0,0,0,0,0,0,0,4.9724,4.9723,4.9695,4.9691,4.9687,4.9657,4.9682,4.9669,4.9618,4.9643,4.9613,4.961,4.9605,4.9603,4.96,4.9622,4.9621,4.9578,4.9579,4.9579,4.9579,0,0,0,0,0,0,0,4.9726,4.9724,4.9716,4.9695,4.969,4.9672,4.9667,4.9679,4.9637,4.9641,4.9635,4.9632,4.9602,4.96,4.9599,4.962,4.9578,4.9579,4.9579,4.9579,4.9679,4.9681,0,0,0,0,0,0,4.9733,4.9726,4.9717,4.9715,4.97,4.9673,4.9668,4.9669,4.9636,4.9629,4.9634,4.9628,4.96,4.9598,4.9597,4.9651,4.9579,4.9579,4.958,4.9677,4.968,4.9682,0,0,0,0,0,0,4.9734,4.9733,4.9718,4.9719,4.9715,4.9675,4.9678,4.9669,4.9667,4.9631,4.9623,4.9639,4.9598,4.9597,4.9618,4.9648,4.958,4.958,4.9674,4.9678,4.9681,4.9758,0,0,0,0,0,0,4.9734,4.9734,4.9751,4.972,4.9716,4.9739,4.9679,4.967,4.9668,4.9661,4.9634,4.9628,4.9597,4.9617,4.9618,4.9648,4.9581,4.9671,4.9676,4.968,4.9753,4.9764,4.9773,0,0,0,0,0,4.9735,4.9774,4.9752,4.9751,4.9736,4.9741,4.9739,4.9702,4.9671,4.9688,4.9665,4.9629,4.9645,4.962,4.9621,4.9651,4.9669,4.9674,4.9679,4.9748,4.9762,4.9773,0,0,0,0,0,0,4.9811,4.977,4.9744,4.9775,4.9762,4.9729,4.9749,4.9717,4.9713,4.9707,4.9661,4.9656,4.9683,4.9669,4.9642,4.9695,4.9651,4.9657,4.9703,4.9716,4.9726,4.9729,4.9581,0,0,0,0,0,4.9831,4.9838,4.9802,4.9832,4.9827,4.979,4.979,4.9763,4.9748,4.9742,4.972,4.9707,4.971,4.9712,4.9712,4.9751,4.9744,4.9772,4.9782,4.9791,4.9796,4.9815,4.9827,4.9699,4.9699,4.9699,0,0,4.9873,4.9851,4.9859,4.9847,4.9834,4.9842,4.9785,4.9797,4.9803,4.9744,4.9762,4.9746,4.9729,4.9759,4.9771,4.9748,4.983,4.9797,4.9804,4.9805,4.9822,4.9834,4.9845,4.9703,4.9702,4.9702,0,0,4.9954,4.9938,4.9962,4.995,4.993,4.9905,4.9911,4.9882,4.9869,4.9887,4.9843,4.9849,4.9854,4.9844,4.9839,4.9917,4.9883,4.9918,4.9972,4.9991,5.0001,5.001,5.0038,5.0048,4.9924,4.9924,4.9924,0,5.0009,5.0019,4.9978,4.9992,4.9989,4.9935,4.9959,4.995,4.9932,4.9931,4.9905,4.991,4.9895,4.9921,4.994,4.9939,4.9944,4.9921,5.0003,5.0011,5.0019,5.0045,5.0055,4.9928,4.9928,4.9927,4.9927,0,5.0088,5.0096,5.0117,5.01,5.0099,5.0118,5.0081,5.0085,5.0058,5.0035,5.0054,5.0034,5.0029,5.0034,5.0007,5.0057,5.0043,5.0011,4.9966,5.0036,5.006,5.0069,4.9934,4.9933,4.9931,4.993,0,0,5.0215,5.0175,5.0184,5.0175,5.015,5.0156,5.0173,5.0167,5.0172,5.0161,5.0174,5.018,5.015,5.0145,5.0117,5.0134,5.0197,5.01,5.0099,5.0118,5.025,5.0274,5.0286,5.0174,5.0176,5.0178,5.0251,0,5.029,5.0315,5.0279,5.0314,5.0321,5.027,5.0285,5.0272,5.0252,5.0255,5.0233,5.0237,5.0198,5.0194,5.0209,5.0186,5.0222,5.018,5.0186,5.0187,5.0192,5.0298,5.0324,5.0394,5.026,5.0262,5.0263,0,5.038,5.0374,5.0409,5.0381,5.0383,5.0397,5.0389,5.0393,5.0377,5.0361,5.0355,5.0322,5.0337,5.0294,5.0314,5.0286,5.0287,5.0276,5.0278,5.0277,5.0229,5.03,5.0416,5.0426,5.0277,5.0276,5.0275,0,5.0469,5.0469,5.049,5.0485,5.0453,5.0464,5.0452,5.0433,5.0433,5.0426,5.0425,5.0421,5.0419,5.0416,5.0383,5.0354,5.0407,5.0361,5.0395,5.0396,5.0408,5.0408,5.0525,5.0409,5.0409,5.0409,5.0409,0,5.0557,5.058,5.0529,5.0542,5.0567,5.0526,5.0552,5.0534,5.0518,5.0527,5.0484,5.0493,5.0449,5.0453,5.0428,5.0448,5.0448,5.0436,5.0428,5.0439,5.0441,5.0439,5.0433,5.0412,5.0411,5.041,5.041,0,5.066,5.0627,5.0646,5.0615,5.0608,5.0628,5.0601,5.0612,5.0589,5.0601,5.0601,5.0566,5.0569,5.0535,5.0533,5.0515,5.0548,5.0532,5.0553,5.0548,5.0584,5.0581,5.0704,5.0718,5.0593,5.0595,5.0596,0,5.0718,5.0734,5.0705,5.0707,5.0697,5.0702,5.0701,5.0661,5.0662,5.0645,5.0658,5.0657,5.0655,5.0663,5.0637,5.0634,5.0618,5.0662,5.0618,5.0628,5.0619,5.0618,5.0619,5.0671,5.0672,5.0674,5.0675,0,5.0824,5.0807,5.0806,5.08,5.08,5.0794,5.0784,5.0789,5.0746,5.0749,5.0752,5.075,5.0747,5.0747,5.074,5.0727,5.0694,5.0689,5.0696,5.0708,5.0719,5.0713,5.0578,5.0686,5.0685,5.0684,5.0683,5.0683,5.0906,5.0918,5.0899,5.09,5.0889,5.0882,5.089,5.0868,5.087,5.0864,5.084,5.0847,5.0831,5.0817,5.0808,5.0813,5.0792,5.0803,5.0806,5.0809,5.0816,5.0718,5.0812,5.0811,5.0811,5.0811,5.081,0,5.1009,5.0995,5.0996,5.0984,5.0985,5.0954,5.0942,5.0945,5.0951,5.0939,5.0937,5.094,5.0941,5.0915,5.0912,5.0921,5.0906,5.0921,5.092,5.0918,5.0835,5.0828,5.0934,5.0934,5.0934,5.0934,5.0934,5.0934,5.1063,5.1082,5.1063,5.1077,5.1062,5.1068,5.1064,5.1057,5.1047,5.1052,5.1052,5.1035,5.1017,5.1012,5.1011,5.1004,5.1005,5.1026,5.1013,5.0936,5.0924,5.0912,5.0906,5.1026,5.1026,5.1096,5.1096,5.1097]}]]